• In Latvia
  • List of Countries
  • For 7 days
  • Water Temperature
  • Satellite Maps
  • Weather Map
  • Weather Widgets
  • user-avatar
    Login

    Hourly Weather Salta

    Today, 17 October, Wednesday

    Time Temperature Precipitation Wind Pressure Humidity
    00:00 +22°C° 0 mm 1 mps 647 mmHg 55%
    01:00 +21°C° 0 mm 1 mps 647 mmHg 55%
    02:00 +21°C° 0 mm 1 mps 647 mmHg 55%
    03:00 +20°C° 0 mm 2 mps 647 mmHg 52%
    04:00 +20°C° 0 mm 2 mps 647 mmHg 49%
    05:00 +20°C° 0 mm 2 mps 647 mmHg 46%
    06:00 +23°C° 0 mm 2 mps 648 mmHg 41%
    07:00 +25°C° 0 mm 1 mps 649 mmHg 35%
    08:00 +27°C° 0 mm 1 mps 650 mmHg 30%
    09:00 +29°C° 0 mm 2 mps 651 mmHg 25%
    10:00 +32°C° 0 mm 2 mps 651 mmHg 20%
    11:00 +35°C° 0 mm 3 mps 651 mmHg 15%
    12:00 +36°C° 0 mm 3 mps 651 mmHg 15%
    13:00 +36°C° 0 mm 4 mps 650 mmHg 15%
    14:00 +37°C° 0 mm 4 mps 649 mmHg 15%
    15:00 +36°C° 0 mm 4 mps 649 mmHg 19%
    16:00 +35°C° 0 mm 4 mps 648 mmHg 23%
    17:00 +34°C° 0 mm 4 mps 648 mmHg 27%
    18:00 +31°C° 0.3 mm 3 mps 648 mmHg 35%
    19:00 +29°C° 0.3 mm 2 mps 648 mmHg 44%
    20:00 +26°C° 0.3 mm 1 mps 649 mmHg 52%
    21:00 +26°C° 0.1 mm 1 mps 649 mmHg 54%
    22:00 +25°C° 0.1 mm 1 mps 649 mmHg 57%
    23:00 +25°C° 0.1 mm 1 mps 650 mmHg 59%

    Tomorrow, 18 October, Thursday

    Time Temperature Precipitation Wind Pressure Humidity
    00:00 +24°C° 0.1 mm 1 mps 649 mmHg 59%
    01:00 +24°C° 0.1 mm 1 mps 649 mmHg 60%
    02:00 +23°C° 0.1 mm 1 mps 649 mmHg 61%
    03:00 +23°C° 0 mm 1 mps 649 mmHg 59%
    04:00 +23°C° 0 mm 1 mps 649 mmHg 58%
    05:00 +21°C° 0 mm 2 mps 649 mmHg 57%
    06:00 +24°C° 0 mm 1 mps 650 mmHg 50%
    07:00 +26°C° 0 mm 1 mps 651 mmHg 44%
    08:00 +28°C° 0 mm 1 mps 652 mmHg 38%
    09:00 +30°C° 0 mm 1 mps 652 mmHg 32%
    10:00 +32°C° 0 mm 2 mps 653 mmHg 27%
    11:00 +35°C° 0 mm 2 mps 653 mmHg 21%
    12:00 +36°C° 0 mm 3 mps 652 mmHg 22%
    13:00 +36°C° 0 mm 3 mps 652 mmHg 22%
    14:00 +36°C° 0 mm 4 mps 651 mmHg 22%
    15:00 +35°C° 0.3 mm 4 mps 651 mmHg 29%
    16:00 +33°C° 0.3 mm 4 mps 650 mmHg 36%
    17:00 +32°C° 0.3 mm 5 mps 649 mmHg 43%
    18:00 +29°C° 4.1 mm 4 mps 650 mmHg 54%
    19:00 +27°C° 4.1 mm 3 mps 650 mmHg 66%
    20:00 +25°C° 4.1 mm 3 mps 650 mmHg 77%
    21:00 +24°C° 0.4 mm 2 mps 651 mmHg 76%
    22:00 +24°C° 0.4 mm 2 mps 651 mmHg 76%
    23:00 +24°C° 0.4 mm 1 mps 652 mmHg 76%

    Day after tomorrow, 19 October, Friday

    Time Temperature Precipitation Wind Pressure Humidity
    00:00 +24°C° 0 mm 1 mps 651 mmHg 74%
    01:00 +23°C° 0 mm 1 mps 651 mmHg 73%
    02:00 +23°C° 0 mm 1 mps 651 mmHg 71%
    03:00 +22°C° 0 mm 1 mps 651 mmHg 73%
    04:00 +22°C° 0 mm 1 mps 651 mmHg 75%
    05:00 +21°C° 0 mm 1 mps 651 mmHg 77%
    06:00 +21°C° 0.2 mm 2 mps 652 mmHg 74%
    07:00 +23°C° 0.2 mm 2 mps 652 mmHg 72%
    08:00 +24°C° 0.2 mm 2 mps 653 mmHg 69%
    09:00 +25°C° 0.1 mm 2 mps 653 mmHg 64%
    10:00 +26°C° 0.1 mm 3 mps 653 mmHg 59%
    11:00 +28°C° 0.1 mm 3 mps 653 mmHg 54%
    12:00 +28°C° 0.4 mm 3 mps 652 mmHg 54%
    13:00 +28°C° 0.4 mm 3 mps 652 mmHg 54%
    14:00 +28°C° 0.4 mm 3 mps 651 mmHg 53%
    15:00 +28°C° 0.5 mm 3 mps 651 mmHg 56%
    16:00 +27°C° 0.5 mm 3 mps 650 mmHg 58%
    17:00 +27°C° 0.5 mm 3 mps 650 mmHg 60%
    18:00 +25°C° 0.9 mm 2 mps 650 mmHg 67%
    19:00 +24°C° 0.9 mm 2 mps 650 mmHg 75%
    20:00 +23°C° 0.9 mm 1 mps 651 mmHg 83%
    21:00 +22°C° 0.4 mm 1 mps 651 mmHg 83%
    22:00 +22°C° 0.4 mm 1 mps 651 mmHg 83%
    23:00 +22°C° 0.4 mm 1 mps 651 mmHg 84%

    20 October, Saturday

    Time Temperature Precipitation Wind Pressure Humidity
    00:00 +22°C° 0 mm 1 mps 651 mmHg 84%
    01:00 +21°C° 0 mm 1 mps 651 mmHg 83%
    02:00 +21°C° 0 mm 1 mps 650 mmHg 83%
    03:00 +21°C° 0 mm 1 mps 650 mmHg 84%
    04:00 +21°C° 0 mm 1 mps 650 mmHg 85%
    05:00 +20°C° 0 mm 1 mps 650 mmHg 86%
    06:00 +22°C° 0 mm 1 mps 651 mmHg 81%
    07:00 +23°C° 0 mm 1 mps 651 mmHg 75%
    08:00 +24°C° 0 mm 1 mps 652 mmHg 69%
    09:00 +25°C° 0.1 mm 2 mps 652 mmHg 65%
    10:00 +27°C° 0.1 mm 2 mps 652 mmHg 60%
    11:00 +28°C° 0.1 mm 2 mps 652 mmHg 55%
    12:00 +28°C° 0.2 mm 3 mps 651 mmHg 54%
    13:00 +29°C° 0.2 mm 3 mps 650 mmHg 54%
    14:00 +29°C° 0.2 mm 3 mps 650 mmHg 53%
    15:00 +29°C° 0.3 mm 3 mps 649 mmHg 55%
    16:00 +28°C° 0.3 mm 3 mps 649 mmHg 58%
    17:00 +28°C° 0.3 mm 3 mps 648 mmHg 60%
    18:00 +26°C° 0.2 mm 2 mps 648 mmHg 66%
    19:00 +25°C° 0.2 mm 2 mps 649 mmHg 72%
    20:00 +24°C° 0.2 mm 1 mps 649 mmHg 77%
    21:00 +23°C° 0.1 mm 1 mps 649 mmHg 78%
    22:00 +23°C° 0.1 mm 1 mps 649 mmHg 79%
    23:00 +21°C° 0.1 mm 0 mps 650 mmHg 80%

    21 October, Sunday

    Time Temperature Precipitation Wind Pressure Humidity
    00:00 +22°C° 0 mm 1 mps 649 mmHg 81%
    01:00 +22°C° 0 mm 1 mps 649 mmHg 82%
    02:00 +22°C° 0 mm 1 mps 649 mmHg 83%
    03:00 +21°C° 0 mm 1 mps 649 mmHg 85%
    04:00 +21°C° 0 mm 1 mps 649 mmHg 86%
    05:00 +19°C° 0 mm 0 mps 649 mmHg 87%
    06:00 +22°C° 0 mm 1 mps 649 mmHg 80%
    07:00 +23°C° 0 mm 1 mps 650 mmHg 74%
    08:00 +25°C° 0 mm 1 mps 651 mmHg 68%
    09:00 +27°C° 0 mm 1 mps 651 mmHg 61%
    10:00 +28°C° 0 mm 2 mps 651 mmHg 55%
    11:00 +30°C° 0 mm 2 mps 651 mmHg 48%
    12:00 +30°C° 0.2 mm 3 mps 650 mmHg 49%
    13:00 +30°C° 0.2 mm 3 mps 649 mmHg 50%
    14:00 +30°C° 0.2 mm 3 mps 649 mmHg 51%
    15:00 +29°C° 0.4 mm 3 mps 648 mmHg 55%
    16:00 +28°C° 0.4 mm 3 mps 648 mmHg 59%
    17:00 +28°C° 0.4 mm 3 mps 647 mmHg 63%
    18:00 +26°C° 0.1 mm 2 mps 648 mmHg 68%
    19:00 +25°C° 0.1 mm 2 mps 648 mmHg 73%
    20:00 +24°C° 0.1 mm 1 mps 649 mmHg 78%
    21:00 +24°C° 0 mm 1 mps 649 mmHg 79%
    22:00 +23°C° 0 mm 1 mps 649 mmHg 80%
    23:00 +23°C° 0 mm 1 mps 649 mmHg 81%

    22 October, Monday

    Time Temperature Precipitation Wind Pressure Humidity
    00:00 +23°C° 0 mm 1 mps 649 mmHg 82%
    01:00 +22°C° 0 mm 1 mps 648 mmHg 83%
    02:00 +22°C° 0 mm 1 mps 648 mmHg 84%
    03:00 +22°C° 0 mm 1 mps 648 mmHg 84%
    04:00 +22°C° 0 mm 1 mps 648 mmHg 83%
    05:00 +21°C° 0 mm 1 mps 648 mmHg 83%
    06:00 +23°C° 0 mm 1 mps 649 mmHg 76%
    07:00 +24°C° 0 mm 1 mps 649 mmHg 70%
    08:00 +26°C° 0 mm 1 mps 650 mmHg 64%
    09:00 +27°C° 0 mm 2 mps 650 mmHg 59%
    10:00 +29°C° 0 mm 2 mps 650 mmHg 54%
    11:00 +31°C° 0 mm 3 mps 650 mmHg 49%
    12:00 +31°C° 0.3 mm 3 mps 649 mmHg 50%
    13:00 +30°C° 0.3 mm 3 mps 648 mmHg 51%
    14:00 +30°C° 0.3 mm 3 mps 648 mmHg 53%
    15:00 +29°C° 0.9 mm 3 mps 647 mmHg 57%
    16:00 +28°C° 0.9 mm 3 mps 647 mmHg 61%
    17:00 +27°C° 0.9 mm 3 mps 647 mmHg 65%
    18:00 +26°C° 0.4 mm 2 mps 647 mmHg 70%
    19:00 +25°C° 0.4 mm 2 mps 648 mmHg 75%
    20:00 +24°C° 0.4 mm 2 mps 648 mmHg 80%
    21:00 +24°C° 0.2 mm 2 mps 648 mmHg 81%
    22:00 +23°C° 0.2 mm 2 mps 649 mmHg 81%
    23:00 +23°C° 0.2 mm 2 mps 649 mmHg 81%
    Show more